Home > Weather > Chattanooga > Past weeks

Flag for U.S.A. Weather for the Past 2 Weeks in Chattanooga, Tennessee, U.S.A.

Now
55 °F

Scattered clouds.


Feels Like: 55 °F
Forecast: 29 / 53 °F
Wind: No wind

Location: Lovell Field

Current Time: Feb 7, 2016 at 5:11:55 PM

Latest Report: Feb 7, 2016 at 3:53 PM


Visibility: 10 mi

Pressure: 30.01 "Hg

Humidity: 25%

Dew point: 20 °F

Location of ChattanoogaLocation

Historic Weather in Chattanooga — Graph

°F

Chattanooga Temperature Yesterday

Maximum temperature yesterday: 50 °F (at 2:53 PM)
Minimum temperature yesterday: 29 °F (at 4:53 AM)
Average temperature yesterday: 38 °F

High & Low Weather Summary for the Past Weeks

 TemperatureHumidityPressure
High75 °F (Feb 2, 2:53 PM)96% (Jan 28, 5:53 AM)30.48 "Hg (Jan 28, 5:53 AM)
Low22 °F (Jan 24, 4:53 AM)23% (Feb 6, 4:53 PM)29.77 "Hg (Feb 3, 2:53 AM)
Average45 °F65%30.10 "Hg
* Reported Jan 23 3:53 PM — Feb 7 3:53 PM, Chattanooga, Weather by CustomWeather, © 2016

Note: Actual official high and low records may vary slightly from our data, if they occured in-between our weather recording intervals... More about our weather records

Advertising

Chattanooga Weather History for the Previous 24 Hours

 ConditionsComfort  
Time TempWeatherWind HumidityBarometerVisibility
3:53 PM
Sun, Feb 7
55 °FScattered clouds.No wind25%30.01 "Hg10 mi
2:53 PM56 °FScattered clouds.3 mph26%30.04 "Hg10 mi
1:53 PM53 °FScattered clouds.3 mph28%30.08 "Hg10 mi
12:53 PM52 °FScattered clouds.5 mph28%30.14 "Hg10 mi
11:53 AM50 °FScattered clouds.3 mph33%30.19 "Hg10 mi
10:53 AM46 °FScattered clouds.3 mph38%30.22 "Hg10 mi
9:53 AM37 °FScattered clouds.No wind70%30.23 "Hg10 mi
8:53 AM31 °FSunny.No wind82%30.24 "Hg10 mi
7:53 AM27 °FSunny.No wind89%30.23 "Hg10 mi
6:53 AM28 °FClear.No wind89%30.22 "Hg10 mi
5:53 AM29 °FClear.No wind82%30.21 "Hg10 mi
4:53 AM30 °FClear.No wind82%30.19 "Hg10 mi
3:53 AM30 °FClear.No wind82%30.21 "Hg10 mi
2:53 AM31 °FClear.No wind76%30.22 "Hg10 mi
1:53 AM32 °FClear.No wind73%30.24 "Hg10 mi
12:53 AM34 °FClear.No wind70%30.25 "Hg10 mi
11:53 PM
Sat, Feb 6
36 °FPassing clouds.No wind59%30.27 "Hg10 mi
10:53 PM37 °FPartly cloudy.No wind54%30.29 "Hg10 mi
9:53 PM40 °FPartly cloudy.No wind45%30.28 "Hg10 mi
8:53 PM42 °FPartly cloudy.6 mph38%30.29 "Hg10 mi
7:53 PM42 °FPassing clouds.6 mph41%30.28 "Hg10 mi
6:53 PM45 °FPartly cloudy.8 mph33%30.28 "Hg10 mi
5:53 PM47 °FBroken clouds.10 mph29%30.29 "Hg10 mi
Weather by CustomWeather, © 2016

See weather overviewHow to use our weather pages